Flag for Israel Weather past 2 weeks in Ramat Gan, Israel

Now
81 °F

Passing clouds.


Feels Like: 84 °F
Forecast: 70 / 85 °F
Wind: 9 mph from Northwest

Location: Dov Airport

Current Time: Jul 4, 2015 at 6:32:46 PM

Latest Report: Jul 4, 2015 at 5:50 PM


Visibility: N/A

Pressure: 29.86 "Hg

Humidity: 70%

Dew point: 70 °F

Location of Ramat GanLocation

Historic Weather in Ramat Gan — Graph

°F

Ramat Gan temperature yesterday

Maximum temperature yesterday: 82 °F (at 1:50 PM)
Minimum temperature yesterday: 75 °F (at 5:50 AM)
Average temperature yesterday: 79 °F

Past Weeks' High & Low Weather Summary

 TemperatureHumidityPressure
High84 °F (Jun 27, 5:50 PM)83% (Jun 27, 6:00 AM)29.95 "Hg (Jun 27, 6:00 AM)
Low72 °F (Jun 29, 5:50 AM)27% (Jun 27, 8:50 PM)29.56 "Hg (Jun 27, 10:50 PM)
Average78 °F65%29.83 "Hg
* Reported Jun 19 4:50 PM — Jul 4 4:50 PM, Ramat Gan, Weather by CustomWeather, © 2015

Note: Actual official high and low records may vary slightly from our data, if they occured in-between our weather recording intervals... More about our weather records

Advertising

Ramat Gan weather history for previous 24 hours

 ConditionsComfort  
Time TempWeatherWind HumidityBarometerVisibility
4:50 PM
Sat, Jul 4
81 °FSunny.9 mph70%29.86 "Hg10 mi
3:50 PM82 °FSunny.12 mph62%29.86 "Hg10 mi
2:50 PM82 °FSunny.12 mph58%29.86 "Hg10 mi
1:50 PM82 °FSunny.12 mph58%29.86 "Hg10 mi
12:50 PM84 °FSunny.12 mph55%29.89 "Hg10 mi
11:50 AM81 °FSunny.10 mph58%29.89 "Hg10 mi
10:50 AM81 °FSunny.9 mph58%29.89 "Hg10 mi
9:50 AM79 °FScattered clouds.7 mph61%29.89 "HgN/A
8:50 AM79 °FScattered clouds.6 mph61%29.89 "HgN/A
7:50 AM75 °FScattered clouds.5 mph69%29.86 "HgN/A
6:50 AM75 °FScattered clouds.3 mph74%29.86 "HgN/A
6:00 AM73 °FPassing clouds.3 mph78%29.86 "HgN/A
9:50 PM
Fri, Jul 3
77 °FPassing clouds.3 mph74%29.89 "HgN/A
8:50 PM77 °FPassing clouds.5 mph74%29.86 "HgN/A
7:50 PM77 °FPassing clouds.6 mph74%29.86 "HgN/A
6:50 PM79 °FPassing clouds.8 mph70%29.86 "HgN/A
Weather by CustomWeather, © 2015

See weather overviewHow to use our weather pages